Showing default

SYNCOM 2 (A 26), 634

Orbit data source: Space-Track

SYNCOM 2 (A 26), 634 is a payload satellite owned by GSFC (US) in GEO that was launched on Fri, 26 Jul 1963 UTC via a THOR DELTA B launch vehicle from the Air Force Eastern Test Range (AFETR). Payload-class satellites include a variety of spacecraft equipped with specific instruments for various scientific and technological missions. These include communications satellites like Starlink; space stations such as the ISS; scientific satellites like the Hubble; Earth observation satellites from companies like Planet Labs, Umbra, and HawkEye 360; GPS; miniature CubeSats for education and research; and military/defense satellites.

Not visible in the next 10 days
Identifier
634, 1963-031A
Orbit
GEO
Country
Flag of USUS
Related business
Manufacturer
Hughes
Mission
Non-operational spacecraft
Bus & Motor
HS-301, JPL SR-12-1
Mass
66 kg wet, ~30 kg dry
Launch date (UTC)
1963-07-26 (63 years ago)
Launch vehicle
THOR DELTA B
Launch site
Air Force Eastern Test Range (AFETR)
Object type
Payload
Rocket body
Debris
Shape & HBR
Unknown
Radar Cross Section
Large (>1 m²)

Expand to show TLE details & history
Last TLE update: 20 hours ago

TLE from 20 hours ago
0 SYNCOM 2 (A 26)
1 00634U 63031A   26145.45474020 -.00000051  00000-0  00000-0 0  9997
2 00634  30.0330 300.7698 0006718 198.1495 335.7381  1.00258439230137
Epoch: 2026-05-25T10:54Z
TLE epoch observation values (Epoch: 2026-05-25T10:54:49.553Z)
Latitude
3.03323°
Longitude
68.72137°
Altitude
35,764.017 km
Speed
3.076 km/s
True Right ascension
07h 41m 52s
True Declination
3° 01' 49"
Sunlit
Object was in daylight at epoch
Visualization orbit readout
Latitude
Unknown
Longitude
Unknown
Altitude
Unknown
Speed
Unknown
Apparent Right ascension
Unknown
Apparent Declination
Unknown
Sunlit
N/A
Visualization observer readout
Local Sidereal Time
16:08:35
Azimuth
Unknown
Elevation
Unknown
Doppler factor
Unknown
Orbital elements
Apogee altitude
35,819.344 km
Perigee altitude
35,762.685 km
Semi-major axis
42,169.152 km
Eccentricity
0.00067
Inclination
30.033°
RAAN
300.7698°
Arg. of periapsis
198.1495°
True anomaly
335.70644°
Mean anomaly
335.7381°
Eccentric anomaly
335.72227°
Mean motion
0.25064 °/min
Orbital period
1,436.32 mins
BSTAR
0
Loading maneuver chart data...
Computing Atmospheric mass density...
Loading historical data...
Loading historical data...
Loading historical data...
Loading historical data...
Loading historical data...
Loading historical data...
Loading historical data...
Other satellites on launch #31 in the year 1963 (1963-07-26 UTC)

Documentation

Showing up to 5 results
|